When you browse on this site, cookies collect data to enhance your experience and personalize the content and advertising you see.
Visit our Privacy Policy to learn more. By continuing to use the site, you agree to this use of cookies and data.
  • In Austria
  • List of Countries
  • For 7 days
  • Water Temperature
  • Satellite Maps
  • Weather Map
  • News
  • Weather Widgets
  • user-avatar
    Login

    Hourly Weather Lyudenevichi

    Today, 26 May, Sunday

    Time Temperature Precipitation Wind Pressure Humidity
    00:00 +14°C° 0 mm 2 mps 745 mmHg 87%
    01:00 +13°C° 0 mm 2 mps 745 mmHg 90%
    02:00 +13°C° 0 mm 2 mps 746 mmHg 92%
    03:00 +12°C° 0 mm 2 mps 746 mmHg 93%
    04:00 +12°C° 0 mm 2 mps 746 mmHg 93%
    05:00 +12°C° 0 mm 2 mps 746 mmHg 93%
    06:00 +13°C° 0 mm 2 mps 746 mmHg 86%
    07:00 +13°C° 0 mm 3 mps 747 mmHg 78%
    08:00 +14°C° 0 mm 3 mps 747 mmHg 70%
    09:00 +16°C° 0 mm 3 mps 747 mmHg 66%
    10:00 +17°C° 0 mm 4 mps 747 mmHg 62%
    11:00 +18°C° 0 mm 4 mps 747 mmHg 58%
    12:00 +19°C° 0 mm 5 mps 747 mmHg 58%
    13:00 +19°C° 0 mm 5 mps 747 mmHg 58%
    14:00 +19°C° 0 mm 5 mps 747 mmHg 58%
    15:00 +19°C° 0 mm 5 mps 747 mmHg 59%
    16:00 +19°C° 0 mm 5 mps 747 mmHg 60%
    17:00 +19°C° 0 mm 4 mps 747 mmHg 61%
    18:00 +18°C° 0 mm 4 mps 747 mmHg 68%
    19:00 +16°C° 0 mm 3 mps 747 mmHg 75%
    20:00 +15°C° 0 mm 2 mps 747 mmHg 81%
    21:00 +14°C° 0 mm 2 mps 747 mmHg 85%
    22:00 +13°C° 0 mm 2 mps 747 mmHg 88%
    23:00 +12°C° 0 mm 1 mps 748 mmHg 91%

    Tomorrow, 27 May, Monday

    Time Temperature Precipitation Wind Pressure Humidity
    00:00 +11°C° 0 mm 1 mps 748 mmHg 92%
    01:00 +11°C° 0 mm 1 mps 748 mmHg 92%
    02:00 +11°C° 0 mm 1 mps 748 mmHg 93%
    03:00 +10°C° 0 mm 2 mps 748 mmHg 93%
    04:00 +12°C° 0 mm 2 mps 748 mmHg 94%
    05:00 +12°C° 0 mm 2 mps 748 mmHg 94%
    06:00 +14°C° 0 mm 2 mps 748 mmHg 87%
    07:00 +17°C° 0 mm 3 mps 748 mmHg 79%
    08:00 +19°C° 0 mm 3 mps 748 mmHg 72%
    09:00 +21°C° 0 mm 4 mps 748 mmHg 65%
    10:00 +22°C° 0 mm 4 mps 748 mmHg 58%
    11:00 +25°C° 0 mm 4 mps 748 mmHg 51%
    12:00 +26°C° 0 mm 5 mps 748 mmHg 50%
    13:00 +26°C° 0 mm 5 mps 748 mmHg 48%
    14:00 +27°C° 0 mm 5 mps 747 mmHg 47%
    15:00 +27°C° 0 mm 5 mps 747 mmHg 51%
    16:00 +26°C° 0 mm 5 mps 747 mmHg 54%
    17:00 +26°C° 0 mm 4 mps 747 mmHg 58%
    18:00 +23°C° 0 mm 4 mps 747 mmHg 66%
    19:00 +22°C° 0 mm 3 mps 747 mmHg 73%
    20:00 +20°C° 0 mm 2 mps 747 mmHg 81%
    21:00 +19°C° 0 mm 2 mps 747 mmHg 83%
    22:00 +18°C° 0 mm 2 mps 747 mmHg 86%
    23:00 +17°C° 0 mm 2 mps 747 mmHg 88%

    Day after tomorrow, 28 May, Tuesday

    Time Temperature Precipitation Wind Pressure Humidity
    00:00 +17°C° 0.1 mm 2 mps 747 mmHg 90%
    01:00 +17°C° 0.1 mm 2 mps 747 mmHg 92%
    02:00 +17°C° 0.1 mm 2 mps 747 mmHg 94%
    03:00 +17°C° 0 mm 2 mps 747 mmHg 94%
    04:00 +17°C° 0 mm 2 mps 747 mmHg 94%
    05:00 +17°C° 0 mm 2 mps 746 mmHg 94%
    06:00 +18°C° 0 mm 3 mps 746 mmHg 90%
    07:00 +20°C° 0 mm 3 mps 746 mmHg 86%
    08:00 +21°C° 0 mm 4 mps 746 mmHg 81%
    09:00 +23°C° 0 mm 4 mps 746 mmHg 74%
    10:00 +25°C° 0 mm 5 mps 746 mmHg 67%
    11:00 +27°C° 0 mm 6 mps 745 mmHg 59%
    12:00 +27°C° 0.5 mm 6 mps 745 mmHg 59%
    13:00 +28°C° 0.5 mm 6 mps 745 mmHg 59%
    14:00 +28°C° 0.5 mm 6 mps 745 mmHg 58%
    15:00 +28°C° 0.2 mm 6 mps 745 mmHg 58%
    16:00 +27°C° 0.2 mm 6 mps 745 mmHg 57%
    17:00 +27°C° 0.2 mm 6 mps 745 mmHg 56%
    18:00 +25°C° 0 mm 5 mps 745 mmHg 62%
    19:00 +22°C° 0 mm 4 mps 745 mmHg 68%
    20:00 +21°C° 0 mm 3 mps 745 mmHg 74%
    21:00 +21°C° 0 mm 4 mps 745 mmHg 73%
    22:00 +21°C° 0 mm 4 mps 745 mmHg 71%
    23:00 +21°C° 0 mm 5 mps 745 mmHg 70%

    29 May, Wednesday

    Time Temperature Precipitation Wind Pressure Humidity
    00:00 +20°C° 0 mm 5 mps 745 mmHg 71%
    01:00 +19°C° 0 mm 5 mps 744 mmHg 71%
    02:00 +19°C° 0 mm 4 mps 744 mmHg 72%
    03:00 +18°C° 0 mm 4 mps 744 mmHg 73%
    04:00 +17°C° 0 mm 4 mps 744 mmHg 75%
    05:00 +17°C° 0 mm 4 mps 744 mmHg 77%
    06:00 +17°C° 0 mm 5 mps 744 mmHg 74%
    07:00 +19°C° 0 mm 5 mps 745 mmHg 72%
    08:00 +20°C° 0 mm 5 mps 745 mmHg 70%
    09:00 +21°C° 0.3 mm 5 mps 745 mmHg 68%
    10:00 +23°C° 0.3 mm 5 mps 745 mmHg 67%
    11:00 +25°C° 0.3 mm 5 mps 745 mmHg 65%
    12:00 +26°C° 0.1 mm 5 mps 745 mmHg 63%
    13:00 +27°C° 0.1 mm 5 mps 745 mmHg 62%
    14:00 +27°C° 0.1 mm 5 mps 745 mmHg 60%
    15:00 +26°C° 3.2 mm 4 mps 745 mmHg 67%
    16:00 +25°C° 3.2 mm 4 mps 745 mmHg 75%
    17:00 +22°C° 3.2 mm 4 mps 745 mmHg 82%
    18:00 +21°C° 0.5 mm 3 mps 745 mmHg 84%
    19:00 +21°C° 0.5 mm 2 mps 745 mmHg 87%
    20:00 +21°C° 0.5 mm 1 mps 745 mmHg 89%
    21:00 +20°C° 0 mm 1 mps 746 mmHg 90%
    22:00 +19°C° 0 mm 1 mps 746 mmHg 91%
    23:00 +19°C° 0 mm 1 mps 746 mmHg 93%

    30 May, Thursday

    Time Temperature Precipitation Wind Pressure Humidity
    00:00 +19°C° 0 mm 1 mps 746 mmHg 93%
    01:00 +19°C° 0 mm 1 mps 746 mmHg 93%
    02:00 +16°C° 0 mm 0 mps 746 mmHg 93%
    03:00 +16°C° 0 mm 0 mps 746 mmHg 94%
    04:00 +16°C° 0 mm 0 mps 746 mmHg 94%
    05:00 +16°C° 0 mm 0 mps 746 mmHg 94%
    06:00 +18°C° 0.2 mm 0 mps 746 mmHg 91%
    07:00 +19°C° 0.2 mm 0 mps 746 mmHg 87%
    08:00 +20°C° 0.2 mm 0 mps 746 mmHg 84%
    09:00 +23°C° 1.4 mm 1 mps 746 mmHg 82%
    10:00 +23°C° 1.4 mm 2 mps 746 mmHg 81%
    11:00 +24°C° 1.4 mm 2 mps 746 mmHg 79%
    12:00 +22°C° 0.8 mm 3 mps 747 mmHg 81%
    13:00 +22°C° 0.8 mm 4 mps 747 mmHg 83%
    14:00 +21°C° 0.8 mm 5 mps 747 mmHg 86%
    15:00 +21°C° 0.1 mm 4 mps 748 mmHg 83%
    16:00 +20°C° 0.1 mm 4 mps 748 mmHg 80%
    17:00 +20°C° 0.1 mm 4 mps 748 mmHg 78%
    18:00 +18°C° 0 mm 4 mps 749 mmHg 80%
    19:00 +15°C° 0 mm 4 mps 749 mmHg 81%
    20:00 +14°C° 0 mm 4 mps 750 mmHg 83%
    21:00 +13°C° 0 mm 4 mps 750 mmHg 82%
    22:00 +12°C° 0 mm 4 mps 751 mmHg 81%
    23:00 +11°C° 0 mm 4 mps 751 mmHg 80%

    31 May, Friday

    Time Temperature Precipitation Wind Pressure Humidity
    00:00 +11°C° 0 mm 4 mps 751 mmHg 81%
    01:00 +10°C° 0 mm 4 mps 752 mmHg 81%
    02:00 +9°C° 0 mm 3 mps 752 mmHg 82%
    03:00 +9°C° 0 mm 3 mps 752 mmHg 81%
    04:00 +9°C° 0 mm 3 mps 753 mmHg 81%
    05:00 +8°C° 0 mm 3 mps 753 mmHg 80%
    06:00 +10°C° 0 mm 3 mps 753 mmHg 75%
    07:00 +11°C° 0 mm 4 mps 754 mmHg 69%
    08:00 +12°C° 0 mm 4 mps 754 mmHg 64%
    09:00 +14°C° 0 mm 4 mps 754 mmHg 59%
    10:00 +15°C° 0 mm 5 mps 754 mmHg 54%
    11:00 +17°C° 0 mm 5 mps 754 mmHg 49%
    12:00 +17°C° 0 mm 5 mps 755 mmHg 49%
    13:00 +19°C° 0 mm 5 mps 755 mmHg 48%
    14:00 +20°C° 0 mm 5 mps 755 mmHg 48%
    15:00 +20°C° 0 mm 4 mps 755 mmHg 50%
    16:00 +19°C° 0 mm 4 mps 755 mmHg 52%
    17:00 +19°C° 0 mm 4 mps 755 mmHg 54%
    18:00 +18°C° 0 mm 3 mps 755 mmHg 60%
    19:00 +16°C° 0 mm 3 mps 756 mmHg 66%
    20:00 +15°C° 0 mm 2 mps 756 mmHg 71%
    21:00 +14°C° 0 mm 2 mps 756 mmHg 72%
    22:00 +13°C° 0 mm 2 mps 756 mmHg 72%
    23:00 +12°C° 0 mm 2 mps 757 mmHg 72%
    Show more